Weather in Pokrovskoye

Russia / Yaroslavl Oblast     57°39′35″N   38°33′34″E
temp.,
°C
wind,
m/s
gust,
m/s
humid.,
%
clouds,
%
prec.,
mm/h
press.,
hPa
HPBL,
m
22 may, sun
sun2200:00+1ne38854 0.0 1010157
03:00−1ne25845 0.0 1010100
06:00+1ne36645 0.0 1009255
09:00+6nne56425 0.0 10081478
12:00+8n563938 0.0 10071688
15:00+9n564196 0.0 10071899
18:00+8n474992 0.0 10061795
21:00+3n227093 0.0 100630
23 may, mon
mon2300:00+2nnw237772 0.0 100646
03:00+2nw388298 0.0 1005201
06:00+4nw41072100 0.0 1004654
09:00+7nw6956100 0.0 10031134
12:00+9nnw7944100 0.0 10021658
15:00+10n71037100 0.0 10021839
18:00+8nw51048100 0.0 10021548
21:00+7nnw61148100 0.0 10021306
24 may, tue
tue2400:00+2nnw4996100 0.5 1002664
03:00+1nw51098100 2.6 1003507
06:00+1nw4898100 1.6 1004413
09:00+3nnw469086 2.4 1005770
12:00+5nnw4672100 0.3 10071338
15:00+5n457396 0.6 10081133
18:00+5n347490 0.3 1010911
21:00+1nnw22935 0.3 101132
25 may, wed
wed2500:000nw239628 0.0 101254
03:00−1n119617 0.0 101312
06:00+3nw2390100 0.0 1013144
09:00+7nnw4575100 0.0 1013914
12:00+9nnw456880 0.2 10141215
15:00+11nnw355682 0.3 10131451
18:00+11nnw346028 0.3 10141148
21:00+6nnw228566 0.4 101413
26 may, thu
thu2600:00+3sse009170 0.0 101510
03:00+3ssw229295 0.0 101415
06:00+6ssw248183 0.0 1014142
09:00+11s34575 0.0 1012673
12:00+15s454434 0.0 10101847
15:00+16sse464190 0.0 10072077
18:00+14se5956100 0.0 10051081
21:00+11ese51266100 0.0 1004624